CAPE
3019 3220 3179 3086 3125 3195 3139 3170 3077 3196 3282 3018 3077 3047 2917 2795 2778 2420 2653 2726 2712 3036 3192 2910 2775 2904 2500 2439 2192 2286 2826 2833 2753 3007 3422 3414 3317 3402 3203 3443 3652 3730 3526 3133 3173 3450 3678 3870 3826 3918 3758 3593 3293 3092 2888 3072 3299 3045 2794 2701 2593 2646 2571 2482 2375 2333 2405 2178 2116 2037 2068 2355 2056 2070 2004 1916 2054 2208 2022 2392 2324 2093 1936 1832 1787
3089 3446 3301 3332 3391 3390 3381 3206 3079 3231 3264 3091 3048 3030 3047 3069 2828 2792 2567 2940 2809 2805 3137 2978 2886 2858 2813 2778 2830 2674 2912 3382 3026 2842 3273 3378 3349 3086 3440 3736 3851 3607 3698 3834 3741 3561 3830 4062 3942 3673 3826 3871 3466 3171 3022 2701 2717 2822 3061 2985 2961 2895 2858 2839 2850 2730 2722 2641 2686 2665 2590 2599 2749 2912 2858 2694 2534 2406 2343 2121 2096 2534 2600 2410 2074
2966 3381 3431 3482 3576 3509 3170 3087 3189 3467 3300 2989 2913 2966 3097 3093 2817 2824 2672 2821 2986 2760 2831 2872 3064 3274 3138 3000 3231 3323 3314 3477 3365 3026 3162 3546 3598 3022 2867 3428 3662 3607 3701 3943 3833 3734 3801 4058 3850 3641 3520 3775 3990 3626 2956 2943 2850 2699 2773 2912 3059 2942 2921 3177 3193 3185 2986 2855 2857 2740 2558 2674 2813 2843 3038 3100 2978 2847 2879 2851 2472 2226 2116 2049 2108
2870 3306 3490 3444 3453 3551 3631 3543 3461 3296 3058 2896 2885 2839 2767 2902 2980 3080 2829 2661 2952 3004 2764 2926 3226 3569 3565 3373 3438 3715 3650 3587 3507 3380 3587 3742 3736 3628 3100 3251 3556 3692 3717 3699 3652 3766 3678 3909 3784 3278 3183 3785 4130 4008 3581 3236 3270 3422 3310 3288 3355 3366 3447 3379 3526 3580 3556 3412 3460 3275 3278 3239 3243 3199 3228 3208 3128 2988 2818 2679 2484 2393 2278 2115 2003
2725 3106 3326 3258 3338 3537 3444 3344 3305 3158 2899 2732 2758 2720 2510 2647 3000 3025 2923 2558 2637 3061 3058 3040 3319 3729 3669 3639 3616 3774 3764 3786 3840 3400 3392 3628 3847 3600 3378 3363 3600 3849 3761 3816 3775 3924 3825 3706 3668 3580 3873 3853 3982 4148 3911 4016 3960 3549 3530 3592 3718 3663 3725 3522 3361 3180 2924 2935 3239 3444 3492 3476 3546 3575 3632 3610 3583 3498 3311 3166 3004 2968 2916 2475 2467
2596 2916 3069 3082 3269 3386 3591 3325 3248 3076 2843 2661 2576 2551 2495 2540 2849 3050 2951 2677 2502 2778 3220 3154 3180 3662 3967 3731 3720 3886 3914 3840 3858 3668 3106 3350 3654 3633 3398 3477 3515 3756 3853 3633 3805 3953 3780 3827 3909 3748 3798 4001 3884 3733 4038 4263 4357 3998 3810 3791 3748 3538 3321 3199 3198 2995 2916 2500 2863 3052 3256 3327 3300 3190 3117 3113 3242 3374 3621 3606 3455 3249 3128 3031 2820
2652 2852 3034 2874 3194 3305 3520 3371 3157 2898 2978 2751 2614 2638 2534 2469 2586 2862 2893 2765 2480 2472 2925 3328 3362 3502 3971 3818 3655 3844 4018 3800 3846 3865 3484 3150 3402 3746 3161 3092 3426 3550 3758 3504 3318 3484 3696 3733 4061 4061 4120 3981 4024 3994 4240 4370 4283 4208 3995 4116 3878 3547 3326 3468 3317 2912 2827 2842 2986 3110 3276 3244 3206 3135 3044 3002 2975 3119 3227 3329 3064 3462 3362 3212 3090
2618 2863 3041 2973 3243 3353 3542 3484 3146 3107 3023 3113 2934 2748 2633 2516 2602 2779 2980 2860 2532 2392 2570 3033 3391 3421 3631 3733 3693 3626 3929 3912 3860 3917 3836 3316 3023 3552 3734 3051 2884 3427 3538 3620 3342 2981 3164 3441 3355 3670 4191 4262 4155 4206 4242 4198 4127 4372 4190 4128 3934 3705 3597 3443 3392 3139 3050 2908 2981 2901 2852 2808 2831 2805 2692 2621 3002 3284 3616 3721 3417 3659 3560 3511 3401
2612 2780 3030 3046 3280 3537 3660 3534 3489 3241 3106 3271 3177 3022 2860 2744 2776 2892 3103 2957 2619 2403 2480 2709 3191 3404 3377 3572 3657 3505 3543 3837 3804 3884 3900 3776 3354 3189 3598 3603 3081 2956 3319 3499 3358 3286 2935 2726 3025 3022 3387 4280 3951 4022 4088 4110 4101 4064 4310 4318 4328 3816 3508 3207 3077 2993 2870 2861 2801 2761 2754 2828 3038 3329 3234 3190 3578 3750 3768 3873 3752 3489 3384 3095 2797
2628 2850 3007 3193 3369 3583 3773 3750 3645 3608 3308 3445 3489 3233 3035 2999 2891 3014 3118 3069 2890 2736 2672 2704 2825 3208 3433 3650 3699 3588 3466 3577 3622 3120 3357 3706 3651 3063 3175 3593 3632 3180 3223 3270 3100 3074 3116 2928 2050 2864 3575 4014 3855 3548 3400 3199 3132 3042 3360 3881 4278 3946 3424 3190 3121 3089 2974 2891 2780 2631 2661 2741 3007 3214 3440 3569 3718 4000 3906 3954 3766 3522 3100 2758 2460
2730 2810 3094 3169 3474 3770 3895 3869 3786 3690 3562 3490 3588 3516 3231 3179 3128 3269 3302 3311 3205 3183 3083 2958 2797 2860 3251 3452 3677 3535 3553 3449 3139 2981 2934 3052 3394 3646 3300 3411 3792 3860 3469 3475 3585 2931 2642 2836 2870 3444 4224 3477 3601 3194 3157 2890 2760 2574 2362 2494 2946 3977 3799 3583 3291 3213 3193 3294 3062 3153 3335 3528 3776 3985 3951 3873 3625 3811 3665 3449 3230 2838 2384 2340 2466
2737 2988 3118 3316 3715 4004 3930 3969 3922 3867 3737 3786 3802 3682 3407 3332 3355 3471 3408 3427 3515 3342 3350 3211 3197 2886 3008 3293 3390 3538 3585 3179 2923 2834 2697 2692 2860 3154 3408 3509 3373 3581 3537 3188 3174 3138 2923 2502 2383 2357 2917 3647 3946 4181 3331 2959 2694 2463 2374 2325 2266 2257 2387 3101 3561 3470 3313 3323 3370 3564 3589 3602 3679 3978 3879 3970 3608 3134 2836 2658 2472 2220 2216 2267 2378
2871 3180 3210 3483 3947 4117 3976 4025 3963 4023 3944 3845 3954 3788 3656 3581 3521 3517 3461 3562 3517 3597 3603 3485 3489 3279 3075 3286 3209 3250 3536 3019 2846 2672 2517 2352 2207 2338 2635 3062 3323 3404 3368 3468 3259 3188 3304 3329 3086 2612 2388 3855 3890 3809 4429 4620 3818 3439 3067 2855 2771 2730 2672 2608 2562 2600 3196 3145 3341 3531 3440 3343 3743 3729 3710 4178 3225 2876 2782 2494 2286 2195 2266 2484 2594
3065 3206 3375 3744 4164 4187 4017 4084 4038 4012 4049 3928 3949 3883 3721 3728 3503 3414 3452 3587 3707 3756 3552 3604 3600 3670 3470 3365 3416 3316 3463 3013 2816 2569 2392 2202 2065 1979 2596 2472 2831 3112 3424 3545 3489 3641 3741 3780 3844 3784 3433 3150 3571 3845 4230 4318 4694 4369 3982 3813 3610 3401 3318 3342 3262 3128 3062 3087 3249 3458 3502 3661 3551 3653 3831 3679 3004 2733 2768 2540 2434 2479 2608 2612 2666
3274 3417 3582 3914 4128 4171 4073 4057 4104 4097 4085 3976 3980 3969 3884 3782 3634 3384 3329 3485 3705 3775 3754 3703 3757 3786 3637 3449 3404 3368 3500 2828 2771 2600 2323 2126 1948 1799 2517 2381 2415 2817 3217 3593 3733 3628 3896 4124 4154 4102 4181 4271 4212 4256 4551 4828 5008 4968 4753 4486 4466 4371 4343 3710 3364 3205 3083 3029 3015 3406 3639 3314 3374 3623 3586 3172 2558 2433 2290 2261 2472 2447 2182 1781 1747
3302 3545 3662 3791 3912 3974 4002 4018 4080 4098 4097 3953 3910 3912 3933 3997 3901 3594 3313 3325 3552 3700 3791 3641 3779 3798 3658 3619 3318 3365 3374 2833 2713 2588 2413 2136 1898 1719 2505 2660 2702 2873 3128 3543 3748 3986 4048 4255 4533 4405 4232 4381 4125 3806 3880 4372 4562 4532 4529 4537 4516 4164 3916 3392 3318 3448 3177 3243 3201 3088 3174 3243 3438 3234 2920 2407 2330 2343 2154 1729 1678 1621 1334 1440 1476
3343 3708 3543 3521 3621 3814 3807 3912 3950 3953 3974 3918 3860 3804 3843 3923 3892 3738 3515 3388 3426 3539 3750 3586 3671 3633 3662 3755 3670 3468 3507 3566 2745 2528 2379 2189 1950 1992 2543 2855 3046 3202 3355 3684 3817 3809 3784 4009 4276 4151 4223 4639 4269 3848 3604 3476 4157 4001 4138 4314 4137 3641 3469 3413 3298 2931 3014 3112 3191 3279 3342 3288 3361 3229 2941 2622 2329 1818 1699 1379 1608 1474 1620 1491 1439
3471 3780 3614 3471 3524 3663 3723 3797 3910 3840 3919 3855 3838 3730 3761 3933 3908 3850 3648 3328 3122 3415 3611 3754 3689 3626 3558 3725 3554 3791 3664 3606 2900 2660 2416 2175 1992 2423 2750 3007 3207 3286 3447 3633 3670 3743 3879 3603 4100 4296 4350 4607 3967 3667 3638 3494 4254 4135 3864 3451 3470 3486 3490 3599 3488 3501 3210 3320 3362 3461 3338 3491 3324 3058 2794 2514 1916 1135 1285 1298 613 696 781 808 839
3565 3705 3450 3334 3463 3620 3694 3867 3898 3818 3897 3820 3700 3761 3816 3900 3875 3756 3565 3434 3127 3364 3481 3636 3676 3638 3508 3448 3211 3364 3694 3333 2990 2805 2526 2269 2068 2670 2948 3109 3194 3271 3350 3526 3786 4000 4260 4096 3446 3566 4039 4504 3858 3723 3554 3601 4183 3724 3420 3333 3311 3452 3460 3768 3732 4355 4472 4350 4128 3940 3957 3552 3512 3452 2765 1995 1078 786 833 976 856 837 849 573 350
3686 3672 3471 3402 3536 3680 3698 3918 3948 3694 3860 3889 3753 3846 3825 3786 3846 3692 3568 3396 3317 3255 3403 3511 3664 3688 3560 3436 3351 3337 3357 3801 2936 2844 2604 2360 2141 2539 3066 3084 3014 3225 3346 3409 3814 4047 4097 4483 4278 3426 3164 3132 3228 3292 3262 3229 3720 3874 3735 3562 3478 3724 3636 3811 4321 3531 4002 3829 3588 3704 3371 3051 2838 2470 2020 967 1039 1675 1501 690 317 62 22 65 18
3887 3940 3640 3338 3454 3627 3638 3861 3839 3694 3799 3884 3806 3715 3749 3673 3556 3753 3653 3404 3469 3433 3356 3475 3535 3704 3573 3560 3548 3432 3318 3484 3170 2924 2727 2496 2244 2166 3067 3222 3116 3161 3382 3434 3643 3953 4293 4306 4254 3856 3482 3262 3087 2853 2642 2504 2459 3222 3425 3523 3809 3646 3184 3708 3923 3330 3377 3671 3713 3375 3135 2813 2467 1986 1000 309 81 60 14 0 0 0 0 0 24
3890 3836 3644 3433 3431 3515 3512 3714 3814 3623 3737 3868 3895 3814 3879 3758 3730 3878 3666 3707 3676 3636 3599 3491 3533 3577 3621 3644 3704 3704 3469 3189 4889 3001 2849 2624 2418 2230 2718 3186 3247 3152 3358 3583 3616 3818 3972 4149 4393 3970 3491 3413 3224 2923 2682 2449 2303 2179 2735 2708 2720 2723 2821 2958 3132 3391 3590 3798 3608 3294 2904 2513 2120 1313 421 127 10 19 0 0 0 24 88 115 127
4125 4098 3863 3478 3600 3532 3629 3770 3747 3522 3624 3899 4041 3976 3997 3948 3854 3906 3984 3871 3855 3786 3945 3877 3743 3715 3696 3792 3741 3842 3965 4024 3064 3197 3033 2761 2536 2349 2181 2587 2800 3472 3348 3486 3577 3665 4102 4185 3959 3542 3496 3395 3154 2860 2571 2352 2148 2043 2166 2400 2648 2874 2997 3148 3360 3565 3754 3757 3347 3049 2720 2290 1600 478 351 14 1 56 77 42 141 174 198 178 122
4359 4157 3872 3664 3673 3771 3737 3788 3868 3701 3711 3929 4055 4089 4050 4024 4065 4049 4123 4045 3986 3941 3977 3892 3957 3811 3760 3742 3728 3675 3797 3357 3464 3124 2911 2896 2761 2584 2437 2364 2396 3042 3166 3252 3262 3286 3715 4016 4173 3435 3216 3105 2889 2544 2216 2022 2138 2304 2518 2705 2864 3000 3176 3383 3560 3700 3610 3328 3152 3059 2895 1829 914 434 154 56 47 332 432 367 350 268 259 236 228
4274 4205 3901 3811 3923 3766 3863 3925 3909 3644 3707 3919 4133 4216 4243 4160 4070 4050 4110 4014 3997 4032 4011 3651 3422 3528 3402 3366 3649 3523 3477 3475 4037 3394 3214 3082 2940 2736 2648 2576 2491 2338 2761 2603 2886 2966 3584 2918 3469 3428 3196 3069 2818 2437 2113 2188 2337 2529 2686 2818 2963 3151 3386 3579 3689 3522 3309 3210 2973 2394 2014 1408 443 382 178 585 564 595 539 494 383 279 212 158 87
4305 4197 4037 3911 3914 3706 3784 3775 3873 3783 3709 3933 4200 4345 4292 4219 4152 4140 3876 3689 3752 3635 3673 3461 3394 3518 3565 3833 3786 3780 3846 3968 4019 4241 3338 3275 3208 3032 2878 2806 2702 2554 2430 2482 2478 2491 2619 2598 2710 2825 2876 2767 2560 2159 2202 2328 2491 2625 2785 2949 3162 3399 3526 3537 3432 3130 3017 2780 2464 2235 1845 626 392 163 509 768 530 516 412 256 143 162 52 16 0
4278 4127 4122 3850 3851 3677 3732 3667 3759 3904 3983 4070 4283 4393 4340 4437 4342 4277 4152 3961 3904 3735 3638 3612 3425 3244 3863 3959 4069 4109 4078 4053 4296 4059 3656 3529 3512 3303 3110 3034 2923 2777 2625 2457 2329 2303 2364 2425 2470 2484 2430 2345 2308 2221 2328 2446 2593 2758 2950 3165 3330 3357 3211 3240 3074 2849 2793 2563 2283 2006 979 364 303 445 308 257 378 274 110 63 34 10 0 0 0
4179 4168 4001 3800 3899 3858 3880 3743 3775 4016 4071 3957 4226 4402 4274 4235 4365 4179 4167 4090 4006 3965 3834 3806 3695 3618 3890 4050 4172 4050 3976 4215 4313 4358 4222 3802 3636 3491 3367 3261 3145 2961 2794 2591 2424 2298 2162 2132 2068 2075 2108 2180 2252 2327 2412 2544 2712 2936 3139 3226 3224 3183 3176 3011 2954 3050 2800 2551 1970 1030 403 318 280 0 0 1 2 58 49 23 0 12 0 0 7
4033 4112 4127 4049 4068 3991 3947 3918 3779 3920 4098 4202 4138 4431 4440 4245 4193 4164 4193 4350 4201 4156 4236 3986 3966 3998 4066 4217 4296 4499 4600 4452 4440 4065 4072 3982 4126 3481 3506 3476 3307 3146 2969 2751 2512 2343 2181 2157 2233 2221 2265 2338 2387 2411 2512 2644 2890 3093 3204 3215 3195 3112 2914 3062 3240 3010 2582 2471 1836 616 404 282 14 0 0 0 40 19 9 1 7 10 0 1 0
4075 4360 4223 4181 4254 4185 4152 4174 3949 4010 4384 4566 4483 4271 3870 3758 4213 5298 4770 4060 4004 3760 3761 4486 4559 4274 4136 4466 4673 4967 5050 4884 4064 4084 4031 4023 3921 3654 3637 3558 3452 3297 3107 2884 2700 2540 2342 2288 2288 2265 2361 2320 2385 2475 2642 2840 3090 3210 3140 3214 3243 3022 3087 2928 2682 2527 2417 1995 900 396 296 88 0 0 0 0 7 0 0 0 0 0 0 0 0
4004 4294 4262 4234 4269 4446 4366 4474 4498 4460 4482 4904 4894 4767 3893 3628 3676 3749 4115 4084 3846 3796 3632 3797 4062 4026 4374 5564 5227 4243 4341 4487 4511 4346 4095 3759 3731 3675 3623 3578 3472 3342 3199 3004 2838 2647 2579 2550 2438 2400 2430 2475 2546 2658 2808 3001 3153 3334 3386 3218 3216 3041 2962 2680 2300 2125 1594 978 596 194 0 0 0 0 0 0 0 0 0 0 0 0 0 0 0
3999 3996 4285 4298 4606 4701 4827 4815 4888 4789 4758 5166 5353 5281 4569 4078 3599 3680 3824 4021 4003 3778 3514 3480 3648 3992 4093 4162 4585 5360 4294 4148 4133 3917 3827 3796 3728 3669 3602 3556 3484 3348 3155 2983 2887 2860 2828 2808 2841 2818 2775 2731 2678 2765 3009 3186 3466 3480 3260 2942 3028 2807 2414 2098 1765 1581 1325 669 357 132 0 0 0 0 0 0 0 0 0 0 0 0 0 0 0
4511 4645 5144 5057 5320 5145 5171 5276 5242 5380 5292 5337 5496 5336 4898 4623 4350 3705 3634 3748 3950 3960 3849 3535 3469 3545 3583 3726 3674 3959 4205 4090 3869 3832 3848 3819 3760 3683 3601 3536 3456 3327 3216 3173 3169 3188 3196 3207 3148 3058 2945 2904 2847 3023 3304 3381 3279 2828 2594 2462 2489 2086 1769 1755 1682 1244 619 361 19 0 0 0 0 0 0 0 0 0 0 0 0 0 0 0 0
5225 5178 5310 5177 5087 5194 5289 5482 5570 5809 5771 5780 5572 5352 4830 4477 4794 4566 3539 3558 3721 3828 3863 3847 3816 3686 3631 3646 3697 3752 3778 3807 3862 3874 3835 3818 3781 3715 3633 3550 3439 3354 3375 3446 3461 3454 3370 3330 3275 3146 3047 3043 3002 3416 3184 3158 2968 2658 2335 2205 2064 1804 1676 1622 978 482 348 118 0 0 0 0 0 0 0 0 0 0 0 0 0 0 0 0 0
5418 5532 5362 5526 5863 5641 5090 5368 5349 5012 5298 5438 5181 4496 4586 4572 4767 4313 4136 3794 3668 3713 3655 3706 3725 3718 3753 3772 3790 3808 3844 3904 3924 3906 3869 3839 3801 3753 3692 3611 3550 3586 3613 3625 3628 3638 3605 3551 3358 3379 3325 3209 3443 3201 2601 2789 2496 2359 2150 2008 1821 1637 1306 733 529 458 356 0 0 0 0 0 0 0 0 0 0 0 0 0 0 0 0 0 0
4980 5160 5094 5176 5525 5562 5418 5350 5109 5308 5127 4964 4752 4826 4747 4670 4406 4079 4029 3870 4062 3729 3654 3570 3573 3621 3683 3731 3778 3829 3850 3891 3941 3916 3928 3900 3888 3854 3809 3809 3854 3896 3846 3747 3681 3618 3680 3320 2924 3172 3308 3346 3102 2919 2697 2568 2401 2184 2089 1839 1706 1222 696 557 537 278 40 68 0 0 0 0 0 0 0 0 0 0 0 0 0 0 0 0 0
4124 4200 4928 4834 4863 4835 5001 5019 4998 4642 4246 4106 4193 3829 4037 3950 3895 3786 3720 3868 3961 3729 3492 3483 3410 3489 3586 3625 3663 3751 3841 3884 3965 3979 3983 4027 4072 4035 3985 4053 4072 4088 4046 3928 3776 3686 3643 3531 3338 3417 3369 3329 3148 2858 2650 2461 2297 2169 1962 1722 1433 891 646 521 170 113 13 6 0 0 0 0 0 0 0 0 0 0 0 0 0 0 0 0 0
3705 3963 4249 4725 4734 4273 4687 4476 3706 3737 3717 3752 4292 4311 4032 4061 3950 3838 3942 3711 3668 3555 3470 3350 3443 3602 3732 3654 3626 3696 3902 3999 4111 4163 4171 4204 4257 4267 4206 4137 4058 3910 3889 3982 3956 3853 3719 3560 3453 3401 3271 3050 2875 2656 2458 2169 2148 2048 1786 1460 1338 1235 801 245 0 63 51 20 0 0 0 0 0 0 0 0 0 0 0 0 0 0 0 0 0
3342 3511 3432 3671 3859 4093 3656 3516 3576 3518 3454 3516 3712 3536 3404 3434 3669 3603 3534 3502 3473 3405 3382 3624 3682 3792 3869 3930 3914 3926 3901 4112 4216 4338 4402 4417 4468 4440 3880 3578 3847 3834 3773 3862 3876 3781 3620 3559 3416 3063 2748 2533 2475 2344 2235 2113 1901 1728 1699 1659 1627 1171 649 458 283 202 0 0 0 0 0 0 0 0 0 0 0 0 0 0 0 0 0 0 0
3010 3465 3592 3660 3588 3527 3302 3657 3840 3699 3658 3546 3429 3347 3296 3268 3266 3343 3336 3323 3498 3682 3740 3801 3904 4062 4171 4115 4146 4066 3979 4060 4265 4380 4435 4337 4260 4298 4128 3690 3540 3530 3622 3647 3575 3520 3462 2807 2889 2724 2245 2055 2156 2243 1996 1761 1736 1714 1480 1384 1290 1250 1095 1063 980 331 0 0 0 0 0 0 0 0 0 0 0 0 0 0 0 0 0 0 0
2931 3088 3410 3463 3312 3388 3416 3597 3757 3836 3965 3900 3841 3754 3651 3548 3513 3524 3675 3781 3821 3826 3832 3922 3945 4133 4229 4224 4223 4262 4072 3904 3822 3860 3872 3977 3874 3853 3784 3655 3458 3301 3200 3193 3179 3088 2928 2715 2342 2051 1817 1971 1959 1845 1668 1529 1516 1113 897 924 890 895 660 366 254 1 0 0 0 1 4 1 0 0 0 0 0 0 0 0 0 0 0 0 0
2943 3161 3296 3305 3303 3303 3377 3622 3835 3904 3896 3909 3957 3944 3901 3876 3878 3892 3873 3784 3763 3778 3835 3887 3925 3984 3875 3774 3776 3700 3514 3565 3628 3639 3442 3113 3090 3309 3417 3562 3570 3131 2760 3008 2807 2603 2446 2444 2384 2368 2058 1579 1533 1453 1517 1503 1235 1276 951 1026 905 872 707 465 5 7 3 0 7 7 9 8 7 0 0 0 0 2 5 7 8 6 5 5 5
2675 3004 3039 3052 3085 3204 3350 3522 3643 3703 3732 3645 3639 3592 3598 3600 3694 3712 3739 3782 3844 3915 4041 4022 3908 3765 3540 3157 3071 3128 3303 3327 3113 3062 2473 2382 2346 2478 2630 2754 2892 2539 2288 2305 2210 1995 1956 2015 2007 1966 1836 1710 1526 1424 1275 1067 894 925 920 843 618 412 187 2 1 2 0 2 6 12 6 8 9 15 11 6 5 7 7 11 12 12 11 12 13
1711 2154 2628 2808 2851 2962 3051 3152 3260 3353 3409 3339 3276 3192 3076 3052 3110 3295 3457 3536 3489 3437 3522 3659 3697 3594 3476 3180 2916 2911 2895 2436 2394 2406 2166 1939 1909 2135 2354 2462 2385 2321 2148 2084 1882 1696 1574 1507 1398 1239 1042 894 872 840 748 711 785 823 624 397 142 0 0 0 0 0 0 0 0 0 3 4 0 0 0 2 6 6 9 9 11 9 13 8 8
426 778 1437 2147 2456 2462 2609 2746 2796 2916 3067 3075 3002 3058 3040 3184 3252 3227 3117 2986 2962 2873 2980 3034 3231 3422 3305 2927 2654 2424 2369 2276 2244 2105 1930 1884 1898 2070 2184 2250 2218 2152 2070 2006 1764 1515 1388 1318 1135 1214 1088 984 719 543 445 100 0 0 0 0 0 0 0 0 0 0 0 0 0 0 0 0 0 0 0 2 0 0 0 8 12 8 9 15 14
432 613 829 994 1479 1981 2168 2330 2555 2701 2769 2730 2610 2562 2660 2898 3059 3191 3353 3380 3266 3001 2895 2758 2668 2643 2230 2610 2517 2516 2436 2242 1957 1716 1720 1812 1782 1772 1768 1768 1796 1808 1822 1791 1563 1625 1548 1483 1343 1213 1026 844 538 408 264 5 0 0 0 0 0 0 0 0 0 0 0 0 0 0 0 0 0 0 0 0 0 0 0 0 0 1 7 5 6
448 447 594 762 962 1107 1423 1785 2124 2291 2402 2488 2425 2389 2256 2233 2551 2617 2407 2518 2590 2376 2252 2180 2298 2188 2032 1800 1875 1860 1692 1462 1354 1277 1252 1287 1275 1340 1435 1449 1551 1629 1621 1537 1389 1260 1102 925 714 530 430 262 0 0 0 0 0 0 0 0 0 0 0 0 0 0 0 0 0 0 0 0 0 0 0 0 0 0 0 0 0 0 0 0 0
324 357 484 585 789 934 989 1110 1212 1504 1965 2123 2059 1974 2234 2368 2210 1893 1983 1997 2131 2230 2129 1967 1898 1825 1715 1772 1837 1851 1707 1424 1254 1137 1015 1018 1030 973 1047 1026 1000 1040 1018 989 1001 1002 952 739 525 366 70 0 0 0 0 0 0 0 0 0 0 0 0 0 0 0 0 0 0 0 0 0 0 0 0 0 0 0 0 0 0 0 0 0 0
102 0 357 385 462 638 695 810 983 1119 1172 1228 1310 1488 1621 1860 2042 2096 1963 1819 1795 1826 1791 1707 1608 1433 1359 1479 1474 1519 1529 1389 1339 1178 1213 1149 1067 966 891 887 852 873 896 862 808 791 749 676 524 214 0 0 0 0 0 0 0 0 0 0 0 0 0 0 0 0 0 0 0 0 0 0 0 0 0 0 0 0 0 0 0 0 0 0 0
43 0 18 180 279 429 509 508 581 740 849 929 1008 1093 1104 1219 1392 1632 1816 1742 1746 1752 1659 1580 1449 1450 1381 1496 1349 1221 1165 1130 1074 1004 891 837 833 754 750 691 648 675 676 692 626 522 447 360 0 0 0 0 0 0 0 0 0 0 0 0 0 1 0 0 0 0 0 0 0 0 0 0 0 0 1 0 0 0 0 0 0 0 0 0 0
0 3 46 93 149 308 378 329 304 329 522 566 557 684 732 893 1081 1203 1364 1442 1565 1597 1671 1580 1542 1489 1408 1300 1249 1196 1035 973 844 675 619 606 570 566 552 578 556 524 525 467 366 0 0 0 0 0 0 0 0 0 0 0 0 0 0 0 0 0 0 0 0 0 0 0 0 0 0 0 0 0 0 0 0 0 0 0 0 0 0 0 0
Wind_Speed
14 16 18 17 18 16 14 14 14 16 15 14 14 14 13 12 11 10 10 10 11 13 16 17 17 17 16 14 12 11 9 9 8 7 7 6 6 5 4 4 5 5 6 7 7 4 1 2 2 3 4 4 4 4 3 2 1 1 1 2 3 4 4 6 8 10 9 8 9 10 10 10 10 8 9 8 7 9 15 16 18 19 20 21 20
13 16 18 18 16 16 16 16 16 16 14 14 13 14 14 13 12 11 10 10 12 14 16 17 17 16 14 12 11 10 8 7 7 6 6 6 6 4 4 4 4 5 5 6 7 6 5 3 0 1 2 2 2 2 2 3 2 1 1 2 3 4 4 6 8 10 11 9 10 10 10 9 9 7 7 8 7 9 12 15 18 21 22 21 22
13 17 18 18 17 18 18 18 17 15 14 15 12 13 14 14 13 11 12 12 13 16 16 16 16 15 13 11 9 8 6 5 5 5 5 5 5 4 3 4 4 4 5 5 5 6 7 6 4 0 2 1 1 1 2 3 4 5 5 4 5 6 6 6 8 11 13 12 10 10 8 6 6 5 7 9 10 13 15 18 20 20 20 23 26
14 15 16 17 18 20 19 19 17 15 14 15 12 12 15 15 13 12 12 14 14 16 17 16 15 14 11 9 7 6 5 4 3 3 4 4 4 4 3 3 3 3 3 3 4 5 6 7 6 3 0 1 1 2 2 2 3 4 5 6 6 7 8 9 10 11 11 11 8 7 5 5 5 7 9 11 14 16 18 19 21 21 23 28 32
15 14 15 16 19 19 18 18 18 15 14 14 12 13 14 15 15 13 13 13 15 17 18 17 16 13 11 8 7 5 4 2 2 3 3 3 3 3 2 3 3 3 3 3 3 4 5 5 5 4 2 1 1 1 2 3 3 4 5 6 7 7 8 9 10 10 10 9 7 5 5 6 8 10 12 13 14 16 19 22 22 25 30 33 33
16 16 16 16 17 17 18 18 17 16 14 14 13 13 15 15 15 15 14 13 15 17 17 18 16 13 11 9 7 5 3 1 1 2 3 3 2 2 2 3 3 4 5 5 5 5 6 6 5 4 3 2 1 2 2 2 3 4 6 6 8 8 9 9 9 9 9 8 6 6 8 9 10 12 13 14 14 15 16 17 22 30 34 33 32
19 18 17 16 17 17 17 17 18 17 17 16 17 16 15 15 15 16 15 14 15 16 17 17 17 15 12 10 8 5 3 1 1 3 3 2 2 2 2 4 5 5 6 6 6 6 7 7 6 5 4 3 0 1 1 1 2 4 5 6 7 7 8 7 6 7 7 6 5 6 7 8 8 8 11 13 14 16 17 17 22 31 34 34 32
20 19 19 18 18 17 17 17 19 20 20 20 19 17 17 17 17 18 17 15 15 15 16 17 18 17 14 11 8 6 4 2 3 3 3 3 3 4 4 5 6 7 6 6 6 6 7 7 6 5 5 3 1 1 2 2 3 3 4 5 5 5 6 5 5 5 5 5 3 2 3 4 6 8 10 12 14 18 23 23 25 29 31 32 34
21 22 21 19 18 19 20 20 20 21 21 22 20 19 18 18 20 20 19 17 17 16 17 18 18 16 14 12 9 6 4 4 5 6 5 4 4 4 5 6 7 7 7 7 7 6 6 6 5 4 5 4 2 3 5 7 5 4 4 5 5 4 4 3 2 3 4 4 4 3 4 5 6 8 9 10 13 16 20 24 27 30 31 29 26
21 22 22 20 21 22 22 22 21 21 21 22 21 21 20 19 20 20 19 18 18 18 18 18 17 16 15 12 9 7 6 6 8 10 8 7 6 5 6 6 6 7 8 7 7 7 7 5 4 5 6 8 8 5 2 3 2 4 5 5 4 4 3 2 2 4 5 5 4 4 4 4 5 6 7 11 17 21 23 24 25 25 25 24 23
21 22 22 23 24 25 25 23 22 21 21 22 23 22 21 21 21 21 20 20 19 19 18 17 16 17 14 12 9 8 8 8 13 15 13 9 7 7 6 6 6 6 7 8 8 8 7 7 4 6 10 9 8 7 4 2 2 3 7 7 5 4 2 2 3 4 5 6 5 5 5 4 5 6 10 15 17 22 26 26 26 23 22 21 19
22 22 23 25 27 27 26 24 22 21 22 23 24 23 23 22 21 21 21 21 20 19 18 17 17 17 16 12 10 10 10 11 18 17 16 14 11 8 8 7 6 6 7 7 8 9 8 7 6 5 5 4 5 8 5 3 3 4 6 6 6 7 5 4 4 4 7 7 7 6 5 6 8 12 13 13 17 21 28 28 26 24 25 26 26
25 23 23 25 27 28 27 25 23 23 23 24 25 25 24 22 21 21 21 22 22 20 19 18 17 17 16 13 11 11 11 16 20 19 17 17 16 11 8 7 7 6 7 8 8 9 9 9 7 7 6 8 7 6 7 6 4 6 6 7 6 7 9 11 11 9 7 8 7 7 9 11 13 16 17 15 14 16 21 24 26 27 28 29 30
26 25 24 25 27 28 27 25 24 23 24 25 26 25 24 22 21 21 23 23 23 21 19 18 18 17 16 15 15 14 11 20 22 21 18 18 18 15 9 8 7 7 8 9 9 9 9 10 9 8 7 7 8 8 7 6 7 6 4 3 4 8 13 15 17 19 17 13 12 11 14 16 18 18 20 27 17 18 18 18 20 22 25 29 30
27 26 25 25 27 27 27 25 25 25 26 26 26 25 24 23 22 22 23 22 22 21 21 19 19 18 17 16 16 16 14 23 23 22 20 19 19 16 11 9 8 8 9 9 9 9 9 9 9 8 8 8 9 9 8 8 7 6 4 4 3 2 8 13 16 15 17 18 18 19 19 21 23 27 29 36 30 27 27 27 26 27 28 29 33
27 27 26 25 24 25 26 26 27 27 26 26 25 24 24 24 23 23 22 22 23 24 23 21 20 19 18 18 17 16 16 25 23 23 21 19 21 16 12 10 9 9 10 10 10 10 9 9 9 9 8 8 9 11 10 9 7 7 6 4 3 1 4 8 13 17 17 19 20 20 21 21 29 28 34 45 40 33 30 31 31 32 33 33 34
27 28 25 23 23 24 25 26 27 27 26 25 24 24 24 24 24 24 22 22 23 23 23 22 22 21 20 20 18 18 16 24 24 23 22 22 22 16 14 12 11 10 10 10 10 10 10 9 9 9 8 8 9 14 13 10 6 6 7 5 2 1 3 8 21 24 24 24 18 12 11 16 21 26 30 38 44 40 37 37 38 38 37 35 34
28 28 25 23 23 24 24 25 26 27 26 25 24 24 24 25 24 24 22 21 22 23 24 24 23 23 21 19 19 18 16 24 25 25 24 26 22 17 15 14 12 12 12 11 10 10 9 9 9 9 9 10 11 17 16 15 8 7 7 3 1 1 4 8 11 17 23 21 23 24 26 27 30 31 32 35 42 44 45 45 41 38 37 37 35
27 27 24 23 24 25 25 25 26 26 25 24 25 25 24 24 24 24 22 22 22 25 25 24 24 23 21 19 21 18 16 21 26 26 26 27 22 17 16 14 13 13 14 13 11 10 9 11 10 8 9 11 15 17 18 16 11 9 6 4 1 1 5 7 11 15 20 18 19 19 22 28 31 32 34 44 46 51 48 44 41 41 38 36 37
27 26 26 26 25 26 25 25 25 25 24 25 25 25 25 24 22 22 22 23 23 23 24 24 23 23 22 20 20 19 16 19 26 27 27 27 24 19 16 15 13 14 15 14 13 12 10 10 12 13 8 8 10 15 19 16 13 11 8 5 3 3 7 10 22 21 17 15 13 13 15 21 26 29 30 35 41 48 47 43 42 nan nan nan nan
30 28 27 26 26 25 25 25 25 24 25 25 25 25 24 22 21 21 21 22 22 22 21 23 23 22 22 21 19 18 19 16 25 28 28 28 25 21 17 16 15 16 17 15 14 13 13 12 11 16 15 12 11 9 14 17 15 12 9 6 9 16 17 10 14 22 16 15 16 17 21 25 29 29 31 34 nan nan nan nan nan nan nan nan nan
30 29 27 26 25 24 24 25 25 26 26 26 25 23 23 22 21 21 21 21 20 20 21 21 22 22 21 20 19 18 20 19 23 27 29 29 27 23 18 17 17 18 17 16 15 14 14 15 14 18 21 17 14 13 13 16 17 16 11 11 22 18 16 15 16 15 17 18 21 23 24 27 28 29 31 34 nan nan nan nan nan nan nan 42 40
31 29 28 26 24 23 24 25 26 26 25 24 23 23 23 22 21 21 20 20 20 20 20 21 21 21 21 21 19 19 19 22 21 28 27 30 28 25 21 19 21 19 17 16 17 16 16 16 15 22 24 21 19 17 18 20 22 16 16 23 22 24 19 17 20 21 20 22 24 25 27 29 30 31 34 nan nan nan nan nan 41 43 43 42 40
31 29 27 25 24 24 24 25 26 25 24 24 23 22 22 22 21 21 21 21 21 20 20 19 20 19 19 19 19 18 17 18 24 29 29 28 27 27 24 20 21 20 18 16 17 19 18 16 18 27 26 25 24 24 26 27 20 23 25 26 28 26 24 24 24 25 24 25 26 26 28 30 31 34 36 nan nan 40 40 42 42 42 43 42 40
30 27 26 24 24 24 25 26 24 23 23 23 22 22 21 21 20 19 19 18 19 19 19 18 16 16 16 15 17 16 16 17 19 27 30 27 26 26 24 23 19 19 18 16 16 21 33 37 37 35 34 33 34 33 31 28 30 32 30 31 30 27 26 25 28 29 28 29 28 29 30 32 34 36 37 38 39 41 42 44 44 44 45 44 nan
27 25 24 23 23 24 24 23 22 22 21 21 21 21 20 19 19 19 18 16 16 15 15 15 14 15 14 15 15 15 17 17 17 24 25 26 25 25 25 24 21 19 18 18 35 38 37 39 39 38 35 33 30 26 26 30 32 33 32 30 26 26 27 29 31 32 31 31 31 31 33 34 36 38 38 40 42 43 44 45 44 45 nan nan nan
26 25 24 23 22 22 21 22 22 21 19 20 20 20 19 19 18 18 17 17 16 16 15 15 14 13 13 13 14 15 16 18 18 20 27 25 24 25 24 22 21 21 20 20 26 29 35 31 33 34 34 31 32 37 38 37 33 31 30 28 27 29 31 31 33 33 33 32 33 34 35 36 38 40 41 43 44 45 46 nan nan nan nan nan nan
25 25 24 23 23 21 21 23 22 22 20 20 20 20 19 18 18 17 17 17 17 17 17 16 15 14 14 15 15 15 16 17 19 18 23 26 24 24 25 24 25 25 22 20 21 18 27 38 36 32 33 31 31 30 31 32 32 31 30 30 31 33 35 36 34 33 34 35 36 35 37 38 40 nan nan nan nan nan nan nan nan nan nan nan nan
27 27 26 25 24 24 24 24 23 23 23 22 22 22 21 19 19 19 17 18 18 19 19 19 18 17 17 17 17 17 18 18 19 24 20 23 27 24 24 24 24 24 22 22 23 21 26 31 26 25 26 26 28 29 31 32 33 33 33 33 35 36 36 37 37 37 38 37 38 37 39 40 nan nan nan nan nan nan nan nan nan nan nan nan nan
29 29 28 27 26 26 26 26 25 26 25 25 24 32 46 45 38 27 22 21 21 20 23 21 22 20 19 20 21 20 20 22 27 32 34 36 32 27 27 29 27 24 28 29 25 23 25 25 26 26 26 27 28 30 32 32 34 36 36 36 37 38 39 38 38 40 40 39 39 40 42 nan nan nan nan nan nan nan nan nan nan nan nan nan nan
33 32 31 29 28 29 29 29 29 29 29 29 28 31 34 39 47 48 46 44 37 29 32 36 41 42 36 26 28 41 43 42 41 40 41 38 35 33 34 34 34 34 38 33 27 23 24 23 24 26 27 28 30 31 33 35 37 38 39 39 38 40 40 39 41 42 42 41 41 43 nan nan nan nan nan nan nan nan nan nan nan nan nan nan nan
36 36 35 34 34 34 33 33 33 32 31 31 30 30 31 32 37 48 51 47 48 48 46 46 46 44 44 41 36 33 42 45 42 40 39 40 40 40 40 41 40 40 38 36 28 25 22 24 25 27 30 30 31 33 35 37 39 40 41 41 40 42 42 43 45 42 43 43 44 46 nan nan nan nan nan nan nan nan nan nan nan nan nan nan nan
41 41 39 36 38 37 37 37 36 35 34 34 34 32 30 30 31 34 43 51 52 52 52 51 49 47 47 46 45 41 40 44 46 46 44 43 42 41 43 44 43 40 39 32 27 26 25 26 27 28 31 31 34 35 36 38 41 41 41 42 43 44 45 49 46 44 45 45 nan nan nan nan nan nan nan nan nan nan nan nan nan nan nan nan nan
40 39 38 40 41 42 41 41 39 38 38 38 38 36 33 33 33 36 37 38 44 49 55 56 52 49 50 49 46 45 46 47 47 48 47 46 47 47 49 44 42 41 37 32 30 29 30 30 31 32 34 34 36 38 40 41 42 43 43 44 46 48 50 49 47 47 48 49 nan nan nan nan nan nan nan nan nan nan nan nan nan nan nan nan nan
40 48 45 37 38 40 39 39 37 37 38 39 38 38 37 37 37 34 35 36 39 39 39 46 51 52 48 47 48 48 48 48 49 49 50 50 51 53 54 48 43 35 32 31 32 32 33 34 35 37 38 40 42 42 43 44 44 45 45 47 48 49 49 48 48 49 47 nan nan nan nan nan nan nan nan nan nan nan nan nan nan nan nan nan nan
39 37 37 38 39 39 37 36 34 37 37 37 37 40 41 40 37 36 37 40 40 44 50 50 50 52 56 56 53 52 52 52 51 50 50 51 52 53 47 43 42 40 38 36 36 37 39 40 43 43 43 45 46 47 48 49 48 48 48 50 50 49 48 49 49 49 nan nan nan nan nan nan nan nan nan nan nan nan nan nan nan nan nan nan nan
41 39 40 40 40 40 41 41 40 38 39 38 39 37 37 37 37 38 41 43 46 52 52 52 50 52 54 53 54 55 55 56 56 56 55 54 48 44 45 46 45 46 44 43 46 48 50 51 51 51 51 51 50 51 52 52 51 51 51 52 52 50 49 49 50 49 nan nan nan nan nan nan nan nan nan nan nan nan nan nan nan nan nan nan nan
52 50 48 47 47 48 45 45 46 47 44 43 43 42 41 41 43 42 45 51 54 53 51 49 49 48 50 49 48 50 55 58 61 59 54 51 53 55 51 47 47 48 49 49 51 52 53 53 52 53 53 54 53 53 53 53 52 51 51 52 51 51 53 53 nan nan nan nan nan nan nan nan nan nan nan nan nan nan nan nan nan nan nan nan nan
52 56 57 56 50 44 45 46 45 45 46 45 45 45 45 43 43 46 51 51 50 49 48 48 48 49 49 50 51 54 58 56 55 55 55 53 53 55 55 53 50 49 49 50 50 52 53 53 50 49 50 51 52 51 50 50 50 52 53 52 52 54 53 52 55 53 nan nan nan nan nan nan nan nan nan nan nan nan nan nan nan nan nan nan nan
53 52 53 47 45 48 47 48 48 47 46 46 46 46 46 45 45 45 45 45 45 45 45 46 47 48 49 50 51 51 52 53 53 54 53 53 51 52 53 54 51 48 49 50 49 49 50 49 47 45 44 45 46 47 48 48 49 51 50 48 48 48 48 48 50 50 nan nan nan nan nan nan nan nan nan nan nan nan nan nan nan nan nan nan nan
51 52 53 53 51 48 49 49 49 46 44 44 44 45 45 44 43 42 42 42 42 43 43 44 45 45 44 45 48 46 48 49 49 48 48 49 49 48 48 49 49 48 48 49 49 48 48 47 46 44 44 44 44 45 46 47 48 47 46 45 44 45 47 46 46 nan nan nan nan nan nan nan nan nan nan nan nan nan nan nan nan nan nan nan nan
52 52 53 52 51 50 49 49 48 47 45 45 44 44 44 43 42 42 42 42 42 42 42 42 42 42 45 49 46 43 47 47 47 47 46 46 48 49 49 48 46 46 47 48 48 48 47 46 47 47 48 49 48 47 47 47 45 45 46 45 46 46 46 47 nan nan nan nan nan nan nan nan nan nan nan nan nan nan nan nan nan nan nan nan nan
57 56 57 55 53 51 49 47 45 45 46 47 47 47 45 45 44 43 43 43 42 43 43 44 43 43 44 48 51 50 45 45 45 44 44 44 46 47 47 48 47 46 46 47 48 48 46 46 48 50 51 51 50 49 48 46 45 46 47 47 47 46 47 nan nan nan nan nan nan nan nan nan nan nan nan nan nan nan nan nan nan nan nan nan nan
58 57 56 55 53 51 49 47 45 44 45 46 47 46 46 45 44 44 44 44 44 44 45 45 44 45 45 46 46 45 45 45 45 44 44 45 46 47 48 49 48 46 43 42 43 44 46 49 52 52 50 49 50 49 47 46 47 50 51 52 53 nan nan nan nan nan nan nan nan nan nan nan nan nan nan nan nan nan nan nan nan nan nan nan nan
56 55 54 53 51 50 49 48 47 46 44 43 43 44 45 45 45 45 46 46 47 48 47 47 47 46 44 42 42 44 44 44 44 45 45 45 46 47 48 49 48 46 44 44 45 46 48 49 49 49 48 49 50 50 50 51 nan nan nan nan nan nan nan nan nan nan nan nan nan nan nan nan nan nan nan nan nan nan nan nan nan nan nan nan nan
57 56 55 54 52 51 49 49 49 48 46 43 42 42 43 44 46 47 47 47 47 48 49 49 48 49 47 44 42 44 44 43 44 44 44 45 46 47 47 48 48 47 47 46 45 45 45 46 47 48 50 51 51 52 53 nan nan nan nan nan nan nan nan nan nan nan nan nan nan nan nan nan nan nan nan nan nan nan nan nan nan nan nan nan nan
60 59 57 56 55 53 52 50 50 50 50 48 46 44 43 43 44 46 47 49 48 48 49 49 49 51 51 49 47 46 46 47 47 47 47 47 47 48 48 48 48 48 47 46 45 45 46 47 48 49 51 52 nan nan nan nan nan nan nan nan nan nan nan nan nan nan nan nan nan nan nan nan nan nan nan nan nan nan nan nan nan nan nan nan nan
62 61 60 59 57 56 54 52 52 53 53 53 50 47 45 44 44 44 44 45 47 48 49 50 51 52 53 52 50 48 46 45 46 46 45 45 45 46 47 48 48 48 48 47 47 47 47 49 50 52 nan nan nan nan nan nan nan nan nan nan nan nan nan nan nan nan nan nan nan nan nan nan nan nan nan nan nan nan nan nan nan nan nan nan nan
65 nan 63 61 60 59 57 55 54 53 54 54 54 52 49 47 46 45 43 43 44 46 48 50 51 52 52 52 51 49 47 45 44 44 44 44 44 45 46 47 48 48 49 49 49 50 51 52 53 54 nan nan nan nan nan nan nan nan nan nan nan nan nan nan nan nan nan nan nan nan nan nan nan nan nan nan nan nan nan nan nan nan nan nan nan
nan nan nan 65 64 63 61 59 57 55 55 55 55 55 53 51 50 49 47 45 45 45 47 50 51 52 52 52 51 50 48 46 45 44 44 44 45 45 46 47 48 49 50 51 51 52 53 54 nan nan nan nan nan nan nan nan nan nan nan nan nan nan nan nan nan nan nan nan nan nan nan nan nan nan nan nan nan nan nan nan nan nan nan nan nan
nan nan nan nan 68 67 65 63 61 60 58 57 57 56 54 53 52 51 50 50 49 48 48 50 53 54 54 53 52 51 50 49 48 48 48 48 48 49 49 50 51 52 52 53 53 nan nan nan nan nan nan nan nan nan nan nan nan nan nan nan nan nan nan nan nan nan nan nan nan nan nan nan nan nan nan nan nan nan nan nan nan nan nan nan nan
Wind_Direction
242 236 235 232 231 227 222 217 218 219 219 216 204 200 199 198 199 195 201 191 186 171 164 158 153 148 139 137 125 120 112 101 96 94 88 81 79 78 82 43 32 34 35 46 45 35 352 249 223 210 203 203 210 204 207 246 270 199 155 118 108 104 105 109 113 117 119 114 117 116 114 108 100 88 76 61 38 15 7 10 13 12 10 6 6
245 244 242 242 244 238 234 226 224 224 227 224 212 204 202 203 202 198 196 196 185 174 170 166 160 153 147 141 136 123 114 99 91 89 84 79 68 62 49 40 32 30 27 24 27 31 29 39 135 184 199 181 193 186 193 183 188 167 173 139 125 121 107 109 108 114 114 112 106 104 100 93 90 62 45 38 33 15 15 9 7 8 3 357 355
248 243 243 245 250 244 237 233 232 233 235 231 221 212 209 208 205 199 196 199 191 179 178 171 169 163 156 152 143 129 115 99 92 87 80 67 57 58 46 25 18 13 13 13 11 11 24 32 43 78 219 202 173 152 153 151 155 151 148 153 138 132 126 101 105 106 107 108 105 99 86 76 70 57 33 22 16 11 10 10 8 3 356 356 358
246 246 246 247 251 248 245 242 243 238 236 231 229 219 215 214 210 204 203 198 196 189 183 179 177 173 165 161 153 139 125 110 93 71 60 56 51 41 45 31 12 5 8 11 356 346 5 21 34 38 247 236 192 159 157 140 136 140 133 131 127 120 119 109 96 103 111 114 114 107 105 89 53 26 15 11 14 10 7 6 4 358 356 358 3
246 248 248 250 252 252 251 246 245 244 241 235 236 228 221 219 216 213 211 200 197 197 191 185 182 181 179 177 166 151 138 120 74 53 33 31 41 43 27 3 353 348 350 349 335 329 341 8 20 10 342 246 205 127 144 123 133 133 127 128 124 122 118 113 108 101 102 104 103 84 64 41 23 12 4 6 5 4 5 6 357 350 354 0 359
251 249 247 248 247 257 255 251 250 251 245 241 242 234 227 223 223 220 216 208 201 199 197 191 189 189 191 190 182 172 167 154 17 12 15 360 355 16 328 325 329 334 340 343 339 332 333 347 359 355 339 331 173 159 147 132 137 125 122 126 127 126 119 112 107 102 95 88 73 55 20 19 12 360 350 351 354 354 2 1 350 349 355 1 358
251 251 251 252 248 251 255 256 253 252 246 239 238 236 229 228 226 226 222 216 210 203 200 195 195 196 202 198 190 191 196 226 296 332 344 337 317 306 305 310 314 317 330 341 345 341 336 338 343 343 339 339 345 173 181 157 161 128 126 129 127 125 122 117 108 100 88 80 58 26 17 2 355 345 331 334 343 351 2 358 352 351 356 359 1
258 256 253 251 251 253 252 252 252 250 245 239 236 236 232 228 227 226 225 222 216 209 203 202 201 203 206 205 202 203 220 257 306 317 313 303 288 290 295 300 314 323 329 334 343 343 336 339 347 340 334 328 315 220 209 201 199 164 150 143 143 136 134 134 126 113 94 83 59 27 5 355 342 342 336 338 344 352 356 354 357 358 360 359 358
265 260 256 254 253 253 250 248 246 248 247 244 240 238 235 231 230 229 227 223 218 214 207 206 206 206 211 213 215 216 229 271 286 299 295 288 279 293 305 313 320 324 327 335 337 333 334 333 337 345 322 313 302 224 210 215 213 198 174 159 149 144 139 141 122 99 86 71 58 23 19 3 343 337 339 340 352 0 353 350 356 358 358 2 3
274 266 263 258 254 254 253 249 248 248 248 247 244 243 239 235 234 233 231 226 223 218 214 209 207 211 216 222 224 228 243 260 286 310 297 273 282 282 293 306 318 321 323 327 331 331 331 327 321 330 303 302 298 294 275 240 210 158 164 162 153 144 134 118 68 54 53 50 34 13 10 354 335 329 349 3 2 350 344 348 356 0 0 4 5
283 276 266 259 256 255 252 251 250 251 249 247 246 244 242 238 235 235 232 230 227 225 220 217 210 212 219 225 233 240 255 265 296 301 302 296 281 286 292 295 309 316 320 319 317 323 323 320 309 303 302 297 299 313 305 315 348 48 86 108 137 159 157 81 43 33 19 15 10 358 355 346 333 336 354 15 2 339 340 345 348 350 355 359 16
283 275 266 260 257 257 254 254 253 252 248 247 247 245 243 240 237 237 234 234 231 229 226 222 217 215 219 224 235 249 260 280 295 302 304 306 300 290 289 290 293 306 311 315 313 313 315 307 295 273 274 276 258 280 300 332 347 26 57 69 69 70 61 46 41 25 10 5 356 348 346 342 336 338 347 359 359 352 341 344 346 353 1 4 6
277 272 267 263 259 256 254 255 256 253 250 248 246 244 243 242 241 240 239 235 233 232 229 227 224 221 220 226 235 253 259 284 296 303 304 310 315 314 296 293 296 303 306 311 312 306 298 292 279 260 243 279 265 235 227 253 324 24 31 43 50 35 31 32 28 11 8 15 12 359 352 350 353 343 332 336 10 13 345 341 344 354 3 4 4
273 274 270 265 259 256 256 256 256 255 250 248 246 246 246 244 243 239 235 234 233 233 233 233 229 228 226 230 239 245 258 282 298 300 304 311 316 313 306 308 304 302 304 305 302 304 300 289 277 264 254 252 248 242 232 220 229 265 286 299 326 2 12 15 8 12 8 4 8 3 358 355 354 345 334 327 2 12 347 352 356 4 11 9 3
268 270 269 264 259 257 257 256 256 255 253 250 248 248 247 244 243 239 236 236 235 234 234 235 234 234 236 237 243 250 253 280 295 297 301 309 313 309 307 306 299 297 299 304 304 301 294 286 275 262 255 251 248 248 239 239 234 208 198 222 292 326 338 333 330 334 342 352 1 3 356 351 350 348 341 323 350 2 349 356 2 4 13 15 6
265 268 267 265 264 261 259 257 256 256 256 253 252 250 248 248 247 243 237 235 233 233 234 233 237 239 240 242 247 256 262 281 288 294 299 306 306 291 302 300 294 290 293 300 303 300 297 284 267 259 251 245 256 270 258 243 221 201 202 218 225 307 325 318 312 331 346 345 343 349 347 325 328 337 329 327 343 355 351 352 353 355 0 2 3
266 268 269 270 268 264 260 258 258 259 259 259 256 253 251 250 247 244 241 236 236 236 235 236 235 239 244 248 253 256 256 275 288 292 296 301 290 288 296 292 288 291 289 293 298 299 295 285 270 254 249 247 257 277 282 269 228 209 215 217 218 280 319 316 332 346 356 0 3 333 318 344 349 346 347 343 342 346 349 351 353 353 355 359 2
265 269 271 273 271 266 262 260 259 260 261 262 260 254 251 247 248 246 243 239 235 236 236 235 237 240 246 251 258 259 256 272 289 289 294 296 296 291 289 290 291 287 286 291 289 286 287 290 271 259 248 246 264 284 283 276 252 241 235 218 188 13 331 325 321 326 325 318 323 338 347 349 348 348 345 345 345 340 344 348 348 347 352 352 356
267 273 275 274 271 268 264 260 259 261 262 261 258 256 253 250 247 245 241 237 233 233 235 236 239 243 248 254 261 265 258 269 287 288 293 297 295 286 286 286 290 287 285 287 291 282 274 277 290 274 250 246 261 278 281 277 258 250 256 253 269 340 309 310 311 308 315 322 324 329 339 341 336 334 336 344 344 341 343 346 345 347 349 349 350
266 267 268 268 267 265 261 260 259 260 261 258 255 253 250 249 250 247 243 238 237 235 238 239 243 246 250 257 260 268 267 261 277 290 293 296 304 288 285 289 291 290 286 287 287 287 280 267 276 294 286 267 266 274 279 282 269 266 268 275 263 304 276 291 290 292 298 307 321 326 330 322 322 326 327 329 334 338 340 339 342 nan nan nan nan
257 260 264 267 267 267 261 259 260 258 256 255 253 251 250 249 250 248 246 242 240 240 242 241 244 247 251 256 258 265 265 264 270 291 292 297 305 300 287 291 289 286 285 287 286 282 277 272 256 282 298 296 295 296 286 287 280 279 281 284 270 261 262 288 303 288 300 309 315 319 316 316 317 320 321 324 nan nan nan nan nan nan nan nan nan
256 260 265 267 268 265 260 255 254 250 251 251 251 250 249 249 248 249 244 244 246 246 244 243 244 247 250 254 255 257 261 270 262 285 293 298 302 313 291 292 290 287 288 285 284 279 272 265 257 272 291 296 300 296 292 291 293 281 288 277 265 267 271 284 290 299 303 307 310 311 310 309 313 316 320 320 nan nan nan nan nan nan nan 339 338
259 262 264 267 266 263 257 256 250 245 246 249 250 249 248 249 249 248 249 248 249 250 249 247 247 247 249 250 251 252 251 257 269 272 291 297 306 312 313 296 292 289 286 285 280 273 266 261 257 272 285 289 292 291 288 287 282 284 283 273 279 282 291 296 296 296 299 301 302 306 309 311 313 317 317 nan nan nan nan nan 326 332 335 335 334
259 262 266 270 267 260 256 252 247 243 244 243 244 246 247 248 248 249 251 250 249 250 247 248 247 248 248 247 248 249 253 251 268 281 285 302 305 313 314 309 292 289 286 279 275 268 265 264 261 274 281 283 280 277 276 283 276 288 288 288 290 295 295 297 298 299 300 300 302 305 307 307 311 313 311 nan nan 313 316 319 321 324 330 332 333
260 264 268 270 266 258 251 246 245 243 242 243 244 244 247 249 248 249 251 250 249 248 249 249 248 246 246 247 248 252 255 260 262 283 297 303 309 310 311 312 304 287 281 278 272 260 253 255 259 263 265 267 271 271 271 273 273 282 288 292 296 296 298 299 301 302 303 302 305 306 307 307 307 308 307 309 311 313 315 316 316 320 326 329 nan
259 264 266 266 262 255 250 245 243 240 240 237 238 238 242 243 242 244 245 243 241 242 242 245 246 245 247 249 252 256 261 262 267 275 288 296 300 305 308 309 307 299 284 268 251 255 258 258 260 262 263 266 270 271 271 271 275 281 288 294 293 293 297 301 303 303 302 305 303 304 306 305 305 304 307 308 309 310 312 314 314 316 nan nan nan
253 257 259 258 253 246 242 235 232 232 231 229 229 230 232 233 235 238 238 237 238 237 238 240 242 247 250 254 258 262 266 268 270 274 279 280 281 284 287 286 291 286 276 272 267 261 261 261 258 259 262 267 262 263 265 271 275 277 281 288 290 292 295 299 301 301 302 301 302 302 303 303 303 307 307 307 309 310 312 nan nan nan nan nan nan
248 250 251 245 238 236 231 230 227 223 223 222 222 222 223 226 229 232 234 237 239 241 241 243 246 249 250 255 260 266 270 274 277 281 282 282 284 287 289 289 287 284 285 283 278 275 264 260 264 264 268 272 274 274 273 274 275 278 283 287 289 289 286 283 287 295 297 298 297 300 301 302 304 nan nan nan nan nan nan nan nan nan nan nan nan
240 242 240 235 230 228 226 224 221 219 221 220 218 219 219 223 226 225 231 235 241 246 247 247 250 250 252 256 260 265 270 277 281 282 284 283 287 293 298 300 297 290 293 291 281 276 266 263 265 268 271 276 277 277 276 276 277 279 283 286 288 290 292 295 297 297 297 299 300 302 301 301 nan nan nan nan nan nan nan nan nan nan nan nan nan
237 238 237 233 229 229 226 225 223 221 222 224 225 223 217 219 215 220 228 239 241 237 241 246 246 249 255 256 258 262 265 264 266 288 283 282 287 294 297 304 305 295 291 290 276 273 272 264 265 269 273 276 279 280 279 280 280 281 283 286 288 291 294 296 296 296 296 297 300 301 299 nan nan nan nan nan nan nan nan nan nan nan nan nan nan
233 233 233 231 230 229 228 226 227 226 224 226 226 230 228 225 223 222 221 220 224 230 230 229 228 230 236 246 253 251 257 260 268 276 282 288 294 290 286 294 296 288 289 286 281 278 273 270 270 273 276 278 279 280 279 280 280 281 282 285 288 291 293 294 294 294 297 299 299 297 nan nan nan nan nan nan nan nan nan nan nan nan nan nan nan
231 229 227 226 230 230 229 229 231 231 230 229 230 230 233 235 231 226 226 228 230 232 232 232 231 232 237 241 244 254 256 257 264 271 277 279 280 280 283 287 288 289 296 296 289 283 280 276 275 276 278 280 280 279 280 280 280 281 283 287 288 289 293 292 292 296 296 296 296 296 nan nan nan nan nan nan nan nan nan nan nan nan nan nan nan
229 229 228 227 228 231 231 232 232 233 235 235 234 234 235 239 243 242 237 235 238 238 236 234 234 237 239 244 251 254 257 262 265 270 274 278 279 279 283 288 291 291 289 289 291 291 289 286 283 282 282 282 281 281 282 282 283 285 286 287 287 289 288 286 290 292 292 291 nan nan nan nan nan nan nan nan nan nan nan nan nan nan nan nan nan
232 232 235 237 235 232 231 233 234 234 235 236 237 239 239 240 243 247 249 247 244 244 243 241 238 239 244 245 253 259 261 264 267 269 272 273 276 276 277 277 281 291 289 286 286 287 287 287 285 284 285 284 283 284 284 283 284 284 285 286 286 285 284 287 290 290 291 292 nan nan nan nan nan nan nan nan nan nan nan nan nan nan nan nan nan
237 233 234 242 244 244 243 241 239 238 238 239 243 244 244 244 244 248 251 254 256 257 258 253 247 242 248 249 250 257 261 265 268 271 272 275 276 278 277 278 279 281 279 284 284 284 284 285 285 284 284 285 283 285 286 285 285 284 284 283 283 284 286 288 289 289 289 nan nan nan nan nan nan nan nan nan nan nan nan nan nan nan nan nan nan
237 238 240 239 242 245 249 250 249 246 246 249 250 248 247 249 250 252 254 256 259 261 258 257 258 256 256 254 257 261 263 265 267 270 274 277 282 283 282 284 283 285 285 281 277 279 276 275 275 280 282 283 282 282 282 282 283 283 283 283 285 287 289 289 288 289 nan nan nan nan nan nan nan nan nan nan nan nan nan nan nan nan nan nan nan
235 239 242 241 243 245 248 250 252 252 255 256 256 256 255 255 257 256 257 259 259 260 262 264 265 263 260 259 260 263 267 269 271 273 275 279 276 270 275 280 282 283 283 279 275 275 274 271 272 274 276 278 278 278 277 277 278 279 281 282 285 289 290 288 288 291 nan nan nan nan nan nan nan nan nan nan nan nan nan nan nan nan nan nan nan
228 229 233 239 244 244 249 252 252 254 259 260 260 259 261 260 260 260 259 257 259 261 264 265 265 266 266 264 266 267 269 271 272 272 273 273 273 272 269 276 282 284 283 280 277 277 275 273 273 274 275 275 275 276 277 277 278 280 282 283 285 284 282 285 nan nan nan nan nan nan nan nan nan nan nan nan nan nan nan nan nan nan nan nan nan
231 230 229 228 235 246 251 252 257 259 260 261 261 262 262 262 263 261 260 260 261 262 263 264 264 264 265 268 268 271 272 272 274 276 276 276 276 278 279 275 273 276 277 278 277 276 277 278 277 277 277 277 277 277 276 276 277 279 282 283 283 284 287 288 288 289 nan nan nan nan nan nan nan nan nan nan nan nan nan nan nan nan nan nan nan
231 236 233 227 239 243 250 253 256 257 258 257 256 257 258 259 259 260 260 261 262 261 261 261 263 264 267 269 269 270 270 272 272 274 275 275 275 277 278 279 280 280 281 282 282 281 280 281 280 276 276 277 278 278 279 278 278 280 282 283 284 286 286 287 288 288 nan nan nan nan nan nan nan nan nan nan nan nan nan nan nan nan nan nan nan
232 234 237 236 239 249 250 251 252 253 255 256 255 256 258 259 260 260 260 259 259 259 259 260 262 264 264 260 256 257 265 268 270 271 271 273 273 273 274 275 279 281 281 281 281 282 283 284 284 282 282 282 281 280 281 281 280 282 282 282 285 287 289 292 290 nan nan nan nan nan nan nan nan nan nan nan nan nan nan nan nan nan nan nan nan
232 235 238 243 243 245 247 247 248 248 249 251 253 255 257 258 259 258 258 258 257 258 259 259 259 256 252 253 255 257 263 262 262 266 269 271 271 271 272 274 275 278 280 281 282 282 283 284 284 284 284 284 283 283 284 284 283 282 283 285 286 289 291 290 nan nan nan nan nan nan nan nan nan nan nan nan nan nan nan nan nan nan nan nan nan
233 234 236 239 241 242 242 244 245 246 247 247 248 249 252 254 256 257 257 258 258 258 259 258 256 255 254 253 254 255 260 264 268 270 270 267 266 266 268 271 272 273 276 278 280 280 279 280 284 285 284 281 280 280 279 276 275 277 279 281 285 287 288 nan nan nan nan nan nan nan nan nan nan nan nan nan nan nan nan nan nan nan nan nan nan
231 233 234 236 237 238 239 240 242 243 245 248 249 249 251 252 254 256 258 259 258 257 258 258 258 259 260 259 259 260 265 268 268 267 266 263 264 265 267 268 270 271 271 272 273 274 275 278 282 283 281 280 279 278 275 273 273 274 276 279 281 nan nan nan nan nan nan nan nan nan nan nan nan nan nan nan nan nan nan nan nan nan nan nan nan
227 228 230 231 233 236 238 238 239 241 244 246 249 251 253 254 255 255 254 254 255 256 257 257 257 256 257 257 258 261 263 264 264 264 262 263 264 265 267 269 271 272 272 272 275 278 280 281 283 282 280 278 277 276 274 273 nan nan nan nan nan nan nan nan nan nan nan nan nan nan nan nan nan nan nan nan nan nan nan nan nan nan nan nan nan
223 226 228 230 231 233 235 237 237 237 238 241 245 249 251 253 256 257 257 256 256 257 258 259 257 259 259 258 256 255 256 258 259 261 263 263 264 265 268 270 272 273 274 276 276 277 278 278 279 279 278 277 276 276 275 nan nan nan nan nan nan nan nan nan nan nan nan nan nan nan nan nan nan nan nan nan nan nan nan nan nan nan nan nan nan
221 225 227 230 231 233 235 236 237 236 236 236 239 243 247 251 254 256 257 258 258 257 257 257 256 257 259 259 259 258 257 257 259 261 261 262 262 265 267 269 271 272 274 276 276 277 277 277 277 277 277 277 nan nan nan nan nan nan nan nan nan nan nan nan nan nan nan nan nan nan nan nan nan nan nan nan nan nan nan nan nan nan nan nan nan
221 224 227 229 231 233 235 237 238 238 236 236 237 240 243 246 250 254 256 255 255 256 256 256 256 256 258 258 259 260 260 259 260 260 261 262 262 263 265 267 270 272 273 274 274 274 275 275 275 276 nan nan nan nan nan nan nan nan nan nan nan nan nan nan nan nan nan nan nan nan nan nan nan nan nan nan nan nan nan nan nan nan nan nan nan
221 nan 226 228 230 232 234 236 238 240 239 239 240 243 245 247 250 252 252 252 253 254 255 255 256 256 256 257 259 260 261 261 261 261 261 261 261 262 263 265 266 268 270 271 272 273 273 274 274 275 nan nan nan nan nan nan nan nan nan nan nan nan nan nan nan nan nan nan nan nan nan nan nan nan nan nan nan nan nan nan nan nan nan nan nan
nan nan nan 226 228 230 232 235 237 239 240 241 241 244 247 250 251 252 252 253 254 254 254 253 254 253 254 255 256 257 259 261 261 262 263 263 263 264 265 265 266 267 269 271 272 273 275 275 nan nan nan nan nan nan nan nan nan nan nan nan nan nan nan nan nan nan nan nan nan nan nan nan nan nan nan nan nan nan nan nan nan nan nan nan nan
nan nan nan nan 229 230 232 234 236 237 239 241 242 243 247 250 252 254 256 257 258 260 260 260 258 255 253 252 252 253 254 256 259 261 263 265 266 267 268 269 270 270 271 272 273 nan nan nan nan nan nan nan nan nan nan nan nan nan nan nan nan nan nan nan nan nan nan nan nan nan nan nan nan nan nan nan nan nan nan nan nan nan nan nan nan